Regional Weather Roundup
Issued by NWS

Home | Current Version | Previous Version | Text Only | Print | Product List | Glossary On
Versions: 1 2 3 4 5 6 7 8 9 10 11 12 13 14 15 16 17 18 19 20 21 22 23 24 25 26 27 28 29 30 31 32 33 34 35 36 37 38 39 40 41 42 43 44 45 46 47 48 49 50
000
ASCA42 TJSJ 270510
RWRPR
PUERTO RICO/U.S. VIRGIN ISLANDS HOURLY WEATHER ROUNDUP
NATIONAL WEATHER SERVICE SAN JUAN PR
100 AM AST FRI MAR 27 2015

PRZ001-004-270600-
PUERTO RICO

CITY           SKY/WX    TMP DP  RH WIND       PRES   REMARKS
SAN JUAN LMM   PTCLDY    75  70  83 E8        30.07F
PONCE          PTCLDY    73  66  78 CALM      30.01F
AGUADILLA      CLEAR     72  66  83 SE5       30.07
CEIBA          PTCLDY    77  70  78 E8        30.08F
$$

PRZ006-007-270600-
U.S. VIRGIN ISLANDS

CITY           SKY/WX    TMP DP  RH WIND       PRES   REMARKS
$$

HOURLY WEATHER ROUNDUP FOR THE NEWS MEDIA

CITY           SKY/WX    TMP DP  RH WIND       PRES   REMARKS
ORLANDO        CLOUDY    71  63  75 S6        29.90F
NEW YORK       LGT RAIN  46  42  86 N10       29.67R
NEWARK         LGT RAIN  46  43  87 N14G22    29.69R
CHICAGO        CLOUDY    32  17  54 N16G23    30.07R WCI  21
HARTFORD       LGT RAIN  46  45  96 N5        29.63S
BOSTON         CLOUDY    44  43  96 N5        29.65R
DALLAS         CLEAR     54  34  47 CALM      30.15F
PHILADELPHIA   LGT RAIN  47  42  83 NW16      29.72R
LOS ANGELES    CLEAR     67  53  61 W5        30.03S
WASHINGTON DC  RAIN      48  42  80 NW12      29.77R


USA.gov is the U.S. government's official web portal to all federal, state and local government web resources and services.